Precipitable_Water
0.24 0.16 0.15 0.14 0.16 0.17 0.18 0.19 0.19 0.21 0.20 0.22 0.22 0.20 0.19 0.19 0.20 0.23 0.24 0.27 0.28 0.21 0.19 0.21 0.19 0.17 0.18 0.20 0.21 0.22 0.24 0.24 0.25 0.28 0.32 0.36 0.38 0.39 0.41 0.44 0.45 0.44 0.44 0.50 0.50 0.52 0.54 0.56 0.59 0.62 0.65 0.65 0.66 0.68 0.68 0.66 0.63 0.61 0.58 0.57 0.56 0.59 0.61 0.59 0.54 0.49 0.43 0.38 0.41 0.44 0.41 0.40 0.44 0.46 0.50 0.51 0.54 0.56 0.57 0.58 0.59 0.59 0.60 0.62 0.66 0.72
0.23 0.15 0.14 0.18 0.20 0.20 0.20 0.24 0.26 0.25 0.24 0.22 0.21 0.21 0.20 0.20 0.18 0.23 0.24 0.27 0.30 0.21 0.20 0.23 0.20 0.18 0.19 0.21 0.22 0.25 0.23 0.22 0.23 0.24 0.27 0.31 0.38 0.41 0.42 0.44 0.46 0.47 0.51 0.51 0.50 0.52 0.55 0.57 0.59 0.62 0.64 0.65 0.62 0.65 0.68 0.66 0.63 0.61 0.60 0.56 0.57 0.58 0.59 0.57 0.52 0.48 0.43 0.41 0.41 0.38 0.37 0.38 0.43 0.45 0.45 0.44 0.48 0.51 0.53 0.54 0.53 0.53 0.53 0.53 0.56 0.59
0.16 0.13 0.18 0.22 0.23 0.24 0.24 0.24 0.25 0.24 0.23 0.24 0.21 0.21 0.20 0.20 0.22 0.24 0.25 0.28 0.29 0.25 0.22 0.24 0.21 0.21 0.22 0.23 0.24 0.24 0.23 0.25 0.25 0.25 0.26 0.26 0.29 0.35 0.40 0.43 0.46 0.46 0.45 0.47 0.50 0.54 0.55 0.57 0.59 0.61 0.62 0.63 0.65 0.67 0.68 0.69 0.65 0.62 0.60 0.56 0.58 0.57 0.57 0.56 0.52 0.49 0.46 0.48 0.45 0.40 0.39 0.40 0.40 0.45 0.46 0.44 0.45 0.47 0.47 0.47 0.49 0.49 0.48 0.48 0.48 0.53
0.12 0.17 0.24 0.26 0.26 0.24 0.24 0.26 0.25 0.24 0.24 0.22 0.22 0.20 0.18 0.21 0.20 0.18 0.24 0.27 0.28 0.25 0.23 0.24 0.22 0.23 0.26 0.27 0.26 0.27 0.27 0.27 0.29 0.29 0.28 0.29 0.29 0.30 0.34 0.39 0.42 0.42 0.43 0.44 0.46 0.49 0.54 0.56 0.58 0.59 0.59 0.62 0.65 0.66 0.67 0.67 0.65 0.63 0.60 0.58 0.59 0.58 0.58 0.56 0.54 0.52 0.54 0.52 0.48 0.46 0.42 0.42 0.39 0.37 0.45 0.46 0.48 0.48 0.48 0.47 0.50 0.51 0.49 0.49 0.48 0.52
0.16 0.21 0.26 0.27 0.27 0.24 0.22 0.24 0.23 0.22 0.20 0.23 0.22 0.20 0.20 0.22 0.25 0.23 0.23 0.26 0.28 0.28 0.28 0.25 0.22 0.21 0.24 0.23 0.25 0.28 0.30 0.29 0.29 0.28 0.29 0.31 0.32 0.33 0.35 0.37 0.40 0.40 0.41 0.43 0.46 0.50 0.52 0.54 0.55 0.55 0.58 0.62 0.62 0.64 0.64 0.64 0.65 0.64 0.60 0.59 0.60 0.58 0.57 0.57 0.57 0.56 0.58 0.54 0.49 0.46 0.44 0.44 0.40 0.42 0.44 0.43 0.43 0.47 0.49 0.49 0.50 0.50 0.52 0.51 0.52 0.54
0.20 0.24 0.27 0.25 0.25 0.25 0.23 0.22 0.23 0.23 0.20 0.22 0.26 0.26 0.27 0.28 0.26 0.26 0.27 0.23 0.21 0.20 0.25 0.24 0.18 0.17 0.21 0.23 0.24 0.27 0.29 0.28 0.30 0.30 0.30 0.32 0.33 0.34 0.34 0.35 0.39 0.42 0.44 0.44 0.45 0.46 0.49 0.51 0.54 0.57 0.58 0.59 0.62 0.63 0.64 0.67 0.68 0.66 0.62 0.61 0.61 0.59 0.59 0.59 0.60 0.59 0.58 0.53 0.47 0.41 0.36 0.32 0.32 0.33 0.35 0.35 0.35 0.41 0.43 0.45 0.51 0.51 0.53 0.53 0.55 0.56
0.20 0.26 0.27 0.24 0.24 0.24 0.25 0.24 0.27 0.27 0.24 0.23 0.26 0.31 0.30 0.29 0.27 0.26 0.24 0.23 0.18 0.16 0.23 0.27 0.18 0.16 0.22 0.22 0.24 0.26 0.27 0.27 0.30 0.30 0.31 0.33 0.35 0.36 0.35 0.35 0.37 0.39 0.42 0.47 0.48 0.50 0.51 0.53 0.53 0.54 0.56 0.58 0.60 0.62 0.66 0.67 0.68 0.66 0.63 0.61 0.61 0.59 0.59 0.61 0.62 0.60 0.58 0.53 0.49 0.42 0.36 0.32 0.31 0.31 0.34 0.39 0.42 0.43 0.46 0.50 0.50 0.53 0.57 0.56 0.56 0.57
0.22 0.23 0.24 0.27 0.25 0.25 0.25 0.23 0.28 0.28 0.26 0.24 0.32 0.33 0.32 0.29 0.26 0.25 0.24 0.23 0.21 0.25 0.26 0.25 0.22 0.17 0.17 0.21 0.26 0.28 0.27 0.27 0.28 0.29 0.30 0.30 0.31 0.32 0.34 0.35 0.36 0.38 0.40 0.41 0.43 0.46 0.49 0.50 0.50 0.50 0.54 0.58 0.60 0.63 0.65 0.65 0.66 0.63 0.62 0.61 0.61 0.60 0.60 0.62 0.64 0.61 0.58 0.52 0.48 0.45 0.41 0.36 0.34 0.34 0.33 0.38 0.41 0.46 0.47 0.48 0.49 0.53 0.56 0.58 0.58 0.58
0.19 0.19 0.21 0.21 0.23 0.24 0.24 0.28 0.32 0.32 0.28 0.29 0.34 0.34 0.30 0.28 0.27 0.26 0.25 0.23 0.24 0.21 0.18 0.21 0.25 0.18 0.17 0.20 0.25 0.26 0.22 0.23 0.24 0.26 0.27 0.29 0.30 0.31 0.32 0.33 0.34 0.36 0.38 0.40 0.41 0.43 0.45 0.48 0.50 0.52 0.54 0.58 0.62 0.62 0.62 0.61 0.63 0.63 0.62 0.61 0.61 0.60 0.60 0.62 0.65 0.62 0.59 0.56 0.49 0.46 0.43 0.39 0.38 0.38 0.38 0.42 0.44 0.43 0.46 0.45 0.49 0.51 0.55 0.57 0.58 0.59
0.19 0.18 0.21 0.23 0.22 0.22 0.29 0.32 0.35 0.34 0.29 0.34 0.36 0.35 0.32 0.30 0.28 0.26 0.23 0.22 0.22 0.18 0.15 0.18 0.22 0.16 0.16 0.20 0.20 0.22 0.21 0.22 0.24 0.26 0.27 0.29 0.30 0.29 0.28 0.28 0.30 0.32 0.33 0.37 0.40 0.41 0.43 0.46 0.48 0.51 0.56 0.59 0.60 0.63 0.68 0.69 0.67 0.63 0.61 0.58 0.59 0.60 0.61 0.64 0.66 0.65 0.61 0.56 0.52 0.48 0.46 0.41 0.39 0.41 0.41 0.42 0.42 0.43 0.43 0.42 0.45 0.49 0.52 0.55 0.56 0.57
0.19 0.21 0.25 0.23 0.21 0.24 0.29 0.33 0.36 0.36 0.35 0.36 0.32 0.27 0.25 0.24 0.23 0.23 0.22 0.21 0.18 0.14 0.14 0.18 0.20 0.18 0.14 0.18 0.19 0.18 0.19 0.23 0.24 0.25 0.27 0.29 0.29 0.29 0.28 0.29 0.29 0.30 0.32 0.35 0.39 0.41 0.43 0.47 0.52 0.56 0.55 0.57 0.61 0.65 0.69 0.69 0.69 0.65 0.61 0.61 0.58 0.61 0.63 0.65 0.66 0.66 0.62 0.58 0.54 0.50 0.47 0.43 0.41 0.41 0.40 0.39 0.40 0.42 0.41 0.39 0.41 0.44 0.48 0.53 0.54 0.55
0.19 0.20 0.19 0.21 0.26 0.26 0.28 0.27 0.33 0.36 0.36 0.33 0.28 0.25 0.23 0.21 0.22 0.20 0.19 0.20 0.14 0.12 0.17 0.19 0.19 0.18 0.11 0.14 0.19 0.22 0.25 0.27 0.26 0.24 0.25 0.26 0.28 0.30 0.30 0.30 0.30 0.32 0.33 0.35 0.38 0.42 0.47 0.47 0.50 0.55 0.55 0.56 0.59 0.64 0.67 0.69 0.69 0.67 0.64 0.59 0.58 0.62 0.63 0.64 0.66 0.67 0.65 0.61 0.56 0.54 0.51 0.46 0.44 0.43 0.40 0.37 0.37 0.40 0.38 0.39 0.39 0.43 0.46 0.48 0.51 0.53
0.17 0.18 0.19 0.20 0.27 0.25 0.25 0.24 0.26 0.31 0.32 0.29 0.27 0.24 0.18 0.17 0.17 0.14 0.17 0.14 0.14 0.14 0.18 0.20 0.20 0.16 0.13 0.15 0.21 0.25 0.26 0.29 0.29 0.29 0.28 0.29 0.30 0.31 0.31 0.31 0.31 0.33 0.34 0.34 0.37 0.41 0.45 0.48 0.48 0.50 0.54 0.57 0.57 0.58 0.61 0.66 0.69 0.68 0.63 0.60 0.57 0.58 0.62 0.63 0.65 0.66 0.66 0.62 0.58 0.54 0.52 0.48 0.47 0.45 0.44 0.40 0.39 0.40 0.38 0.38 0.40 0.42 0.42 0.45 0.45 0.48
0.16 0.19 0.19 0.19 0.20 0.25 0.24 0.19 0.20 0.21 0.26 0.26 0.23 0.21 0.18 0.15 0.14 0.12 0.14 0.16 0.16 0.18 0.21 0.20 0.24 0.15 0.17 0.19 0.26 0.26 0.29 0.32 0.32 0.32 0.32 0.31 0.32 0.32 0.33 0.33 0.33 0.34 0.37 0.38 0.40 0.42 0.45 0.49 0.52 0.54 0.54 0.56 0.58 0.60 0.61 0.64 0.67 0.69 0.65 0.61 0.57 0.57 0.62 0.64 0.65 0.66 0.65 0.62 0.59 0.56 0.54 0.51 0.50 0.47 0.46 0.44 0.41 0.41 0.40 0.40 0.40 0.42 0.43 0.43 0.44 0.45
0.13 0.13 0.17 0.18 0.16 0.22 0.22 0.21 0.21 0.21 0.22 0.24 0.26 0.22 0.19 0.17 0.14 0.12 0.14 0.13 0.14 0.16 0.19 0.25 0.19 0.16 0.15 0.18 0.28 0.30 0.32 0.33 0.33 0.33 0.33 0.33 0.33 0.35 0.37 0.36 0.36 0.36 0.38 0.42 0.43 0.45 0.47 0.50 0.52 0.54 0.58 0.60 0.61 0.62 0.62 0.62 0.63 0.65 0.63 0.63 0.61 0.60 0.62 0.62 0.63 0.65 0.65 0.63 0.60 0.57 0.56 0.54 0.53 0.49 0.48 0.48 0.46 0.46 0.44 0.43 0.42 0.44 0.45 0.44 0.46 0.46
0.16 0.16 0.19 0.23 0.24 0.25 0.23 0.26 0.27 0.25 0.23 0.25 0.25 0.25 0.20 0.18 0.20 0.15 0.17 0.16 0.16 0.16 0.15 0.19 0.17 0.22 0.21 0.29 0.32 0.31 0.31 0.32 0.33 0.32 0.32 0.32 0.33 0.34 0.35 0.36 0.38 0.39 0.39 0.42 0.46 0.49 0.51 0.53 0.55 0.57 0.60 0.63 0.65 0.66 0.66 0.64 0.64 0.64 0.63 0.64 0.63 0.61 0.63 0.65 0.65 0.66 0.68 0.67 0.63 0.59 0.56 0.56 0.56 0.54 0.52 0.51 0.51 0.49 0.48 0.46 0.45 0.45 0.46 0.46 0.47 0.50
0.16 0.14 0.20 0.23 0.25 0.23 0.24 0.26 0.25 0.25 0.17 0.22 0.23 0.20 0.21 0.25 0.22 0.19 0.19 0.20 0.18 0.16 0.13 0.19 0.18 0.21 0.27 0.28 0.30 0.30 0.29 0.29 0.31 0.31 0.31 0.31 0.31 0.32 0.32 0.34 0.37 0.40 0.42 0.44 0.45 0.49 0.53 0.56 0.58 0.60 0.62 0.65 0.66 0.66 0.66 0.65 0.67 0.69 0.71 0.71 0.69 0.67 0.67 0.66 0.66 0.68 0.71 0.71 0.67 0.62 0.59 0.58 0.58 0.56 0.53 0.52 0.52 0.50 0.50 0.49 0.49 0.48 0.49 0.49 0.48 0.49
0.15 0.16 0.22 0.20 0.20 0.25 0.27 0.27 0.25 0.25 0.25 0.22 0.18 0.21 0.27 0.29 0.25 0.19 0.14 0.17 0.15 0.12 0.13 0.17 0.15 0.17 0.18 0.17 0.28 0.27 0.26 0.27 0.28 0.28 0.29 0.30 0.31 0.30 0.32 0.34 0.36 0.38 0.40 0.42 0.46 0.50 0.54 0.56 0.58 0.61 0.64 0.66 0.67 0.68 0.69 0.69 0.71 0.72 0.73 0.73 0.73 0.74 0.71 0.71 0.71 0.72 0.75 0.75 0.71 0.67 0.63 0.61 0.60 0.58 0.57 0.57 0.55 0.55 0.52 0.51 0.51 0.51 0.51 0.50 0.50 0.50
0.21 0.15 0.18 0.21 0.22 0.24 0.27 0.26 0.24 0.27 0.28 0.23 0.22 0.29 0.20 0.19 0.17 0.22 0.18 0.13 0.13 0.12 0.13 0.15 0.17 0.18 0.19 0.19 0.24 0.24 0.24 0.25 0.26 0.27 0.27 0.27 0.28 0.28 0.30 0.33 0.35 0.38 0.41 0.42 0.43 0.45 0.48 0.54 0.60 0.62 0.63 0.67 0.69 0.71 0.74 0.76 0.77 0.76 0.75 0.77 0.79 0.80 0.80 0.80 0.80 0.81 0.81 0.80 0.80 0.77 0.71 0.67 0.65 0.63 0.61 0.61 0.60 0.58 0.54 0.52 0.53 0.52 0.53 0.55 0.55 0.53
0.26 0.17 0.18 0.24 0.23 0.25 0.25 0.23 0.18 0.22 0.28 0.29 0.29 0.26 0.28 0.23 0.21 0.19 0.20 0.20 0.18 0.14 0.14 0.14 0.17 0.15 0.21 0.21 0.24 0.23 0.25 0.26 0.26 0.27 0.27 0.26 0.27 0.28 0.30 0.32 0.34 0.35 0.38 0.41 0.43 0.47 0.49 0.50 0.54 0.58 0.63 0.66 0.69 0.71 0.73 0.76 0.79 0.78 0.79 0.80 0.81 0.82 0.82 0.83 0.82 0.82 0.82 0.86 0.88 0.88 0.86 0.79 0.75 0.71 0.67 0.65 0.63 0.61 0.58 0.55 0.55 0.56 0.56 0.56 0.58 0.57
0.24 0.26 0.17 0.23 0.28 0.27 0.20 0.24 0.21 0.23 0.22 0.23 0.23 0.22 0.23 0.23 0.26 0.23 0.24 0.20 0.18 0.16 0.15 0.14 0.13 0.16 0.21 0.26 0.24 0.23 0.24 0.25 0.27 0.27 0.28 0.28 0.28 0.29 0.31 0.32 0.33 0.35 0.35 0.38 0.41 0.44 0.47 0.50 0.52 0.55 0.59 0.62 0.68 0.71 0.74 0.77 0.77 0.78 0.81 0.80 0.82 0.80 0.79 0.81 0.82 0.83 0.82 0.85 0.89 0.91 0.90 0.88 0.83 0.77 0.73 0.69 0.68 0.65 0.63 0.60 0.58 0.58 0.59 0.60 0.59 0.60
0.24 0.24 0.19 0.22 0.22 0.23 0.24 0.28 0.28 0.27 0.27 0.25 0.24 0.22 0.23 0.21 0.20 0.17 0.17 0.23 0.21 0.18 0.16 0.15 0.14 0.19 0.25 0.29 0.27 0.25 0.26 0.26 0.27 0.27 0.27 0.28 0.30 0.32 0.33 0.34 0.35 0.35 0.36 0.37 0.38 0.41 0.43 0.46 0.49 0.52 0.54 0.57 0.60 0.63 0.67 0.72 0.77 0.78 0.80 0.82 0.83 0.84 0.83 0.83 0.83 0.82 0.82 0.83 0.83 0.84 0.87 0.87 0.89 0.86 0.82 0.75 0.71 0.68 0.66 0.64 0.62 0.61 0.62 0.60 0.61 0.62
0.27 0.25 0.22 0.21 0.23 0.24 0.27 0.32 0.34 0.33 0.31 0.29 0.27 0.25 0.27 0.27 0.26 0.21 0.17 0.19 0.24 0.24 0.24 0.22 0.18 0.19 0.29 0.31 0.30 0.29 0.28 0.29 0.29 0.28 0.28 0.30 0.32 0.33 0.34 0.36 0.37 0.37 0.37 0.38 0.38 0.39 0.39 0.41 0.43 0.44 0.47 0.49 0.51 0.53 0.57 0.62 0.67 0.71 0.76 0.81 0.84 0.82 0.82 0.85 0.86 0.87 0.87 0.87 0.86 0.86 0.91 0.93 0.92 0.89 0.85 0.81 0.77 0.72 0.70 0.69 0.67 0.66 0.63 0.62 0.62 0.64
0.30 0.20 0.18 0.20 0.24 0.28 0.31 0.32 0.33 0.32 0.30 0.28 0.27 0.28 0.26 0.24 0.25 0.24 0.23 0.23 0.21 0.23 0.21 0.20 0.17 0.20 0.29 0.33 0.32 0.31 0.30 0.31 0.31 0.31 0.30 0.31 0.33 0.34 0.34 0.35 0.35 0.35 0.36 0.37 0.39 0.39 0.40 0.41 0.41 0.40 0.41 0.42 0.44 0.45 0.48 0.52 0.55 0.59 0.65 0.73 0.80 0.81 0.82 0.82 0.84 0.86 0.86 0.85 0.86 0.88 0.87 0.81 0.85 0.91 0.91 0.84 0.80 0.78 0.76 0.74 0.72 0.70 0.66 0.65 0.65 0.64
0.16 0.20 0.17 0.15 0.15 0.18 0.22 0.25 0.27 0.30 0.29 0.27 0.26 0.27 0.27 0.27 0.26 0.26 0.25 0.25 0.19 0.19 0.19 0.17 0.13 0.18 0.27 0.31 0.32 0.32 0.32 0.31 0.31 0.32 0.32 0.30 0.33 0.34 0.35 0.36 0.37 0.37 0.37 0.36 0.37 0.38 0.40 0.40 0.40 0.41 0.41 0.40 0.41 0.42 0.43 0.45 0.47 0.52 0.55 0.60 0.65 0.71 0.78 0.81 0.84 0.84 0.85 0.84 0.83 0.86 0.87 0.85 0.82 0.80 0.82 0.85 0.83 0.79 0.79 0.78 0.77 0.75 0.69 0.67 0.67 0.67
0.19 0.19 0.18 0.13 0.11 0.10 0.10 0.11 0.14 0.18 0.23 0.26 0.27 0.26 0.26 0.25 0.24 0.23 0.19 0.20 0.17 0.19 0.20 0.17 0.15 0.21 0.27 0.28 0.28 0.28 0.28 0.29 0.30 0.32 0.34 0.35 0.35 0.34 0.35 0.36 0.37 0.37 0.37 0.38 0.38 0.38 0.39 0.41 0.42 0.42 0.41 0.41 0.41 0.41 0.41 0.42 0.43 0.45 0.47 0.50 0.54 0.59 0.66 0.74 0.79 0.82 0.83 0.83 0.83 0.82 0.84 0.85 0.83 0.80 0.79 0.81 0.84 0.82 0.79 0.78 0.79 0.80 0.77 0.73 0.70 0.70
0.22 0.23 0.20 0.18 0.16 0.14 0.16 0.18 0.21 0.22 0.21 0.19 0.21 0.23 0.24 0.25 0.26 0.24 0.23 0.20 0.17 0.19 0.18 0.18 0.19 0.20 0.22 0.23 0.25 0.25 0.26 0.26 0.28 0.30 0.30 0.31 0.36 0.38 0.38 0.37 0.37 0.37 0.37 0.37 0.38 0.39 0.41 0.41 0.41 0.42 0.44 0.43 0.43 0.43 0.43 0.42 0.42 0.43 0.44 0.44 0.47 0.49 0.53 0.62 0.70 0.75 0.78 0.81 0.82 0.82 0.81 0.81 0.82 0.84 0.83 0.82 0.81 0.83 0.84 0.82 0.80 0.78 0.77 0.75 0.71 0.69
0.25 0.21 0.23 0.22 0.21 0.21 0.23 0.22 0.23 0.23 0.19 0.20 0.19 0.19 0.20 0.21 0.21 0.20 0.18 0.17 0.20 0.18 0.14 0.17 0.19 0.16 0.17 0.22 0.24 0.24 0.25 0.26 0.27 0.28 0.29 0.31 0.32 0.33 0.35 0.37 0.37 0.36 0.36 0.37 0.36 0.36 0.36 0.39 0.42 0.42 0.43 0.43 0.43 0.44 0.44 0.45 0.45 0.44 0.43 0.43 0.44 0.45 0.45 0.48 0.55 0.63 0.69 0.73 0.76 0.79 0.79 0.80 0.80 0.81 0.82 0.85 0.86 0.87 0.89 0.89 0.90 0.86 0.82 0.79 0.71 0.67
0.25 0.21 0.24 0.24 0.23 0.25 0.26 0.26 0.26 0.24 0.23 0.22 0.21 0.20 0.19 0.20 0.20 0.18 0.18 0.19 0.19 0.16 0.13 0.15 0.17 0.16 0.17 0.20 0.22 0.24 0.25 0.27 0.28 0.30 0.32 0.34 0.35 0.35 0.34 0.33 0.32 0.32 0.33 0.33 0.33 0.34 0.34 0.35 0.36 0.38 0.39 0.40 0.40 0.39 0.40 0.42 0.42 0.42 0.42 0.42 0.42 0.43 0.43 0.45 0.46 0.50 0.56 0.61 0.64 0.70 0.78 0.80 0.81 0.82 0.81 0.81 0.82 0.86 0.85 0.88 0.93 0.93 0.89 0.83 0.76 0.72
0.26 0.23 0.26 0.26 0.24 0.25 0.26 0.27 0.27 0.25 0.25 0.24 0.23 0.23 0.23 0.23 0.22 0.21 0.21 0.21 0.20 0.18 0.18 0.18 0.18 0.18 0.19 0.21 0.22 0.24 0.27 0.28 0.31 0.33 0.33 0.32 0.31 0.32 0.31 0.31 0.31 0.31 0.31 0.32 0.33 0.34 0.35 0.35 0.35 0.36 0.37 0.37 0.37 0.37 0.38 0.38 0.39 0.41 0.40 0.38 0.38 0.38 0.40 0.41 0.41 0.43 0.45 0.49 0.55 0.62 0.70 0.77 0.80 0.81 0.82 0.81 0.81 0.84 0.83 0.82 0.83 0.85 0.89 0.86 0.81 0.75
0.24 0.20 0.27 0.25 0.21 0.21 0.25 0.28 0.28 0.27 0.26 0.23 0.24 0.25 0.25 0.24 0.23 0.23 0.22 0.21 0.22 0.20 0.20 0.21 0.20 0.19 0.23 0.26 0.25 0.26 0.28 0.30 0.31 0.29 0.30 0.30 0.30 0.30 0.30 0.30 0.30 0.31 0.31 0.32 0.32 0.32 0.33 0.34 0.35 0.35 0.35 0.35 0.36 0.36 0.37 0.37 0.37 0.38 0.37 0.38 0.37 0.36 0.36 0.37 0.37 0.39 0.43 0.45 0.51 0.58 0.65 0.69 0.74 0.79 0.80 0.80 0.81 0.82 0.82 0.77 0.79 0.81 0.82 0.81 0.81 0.78
0.24 0.20 0.23 0.20 0.16 0.15 0.19 0.21 0.23 0.26 0.26 0.24 0.23 0.25 0.26 0.24 0.21 0.21 0.20 0.22 0.21 0.19 0.21 0.21 0.19 0.18 0.22 0.26 0.27 0.29 0.29 0.28 0.27 0.28 0.29 0.29 0.29 0.30 0.29 0.29 0.30 0.29 0.30 0.30 0.30 0.31 0.31 0.31 0.31 0.31 0.32 0.34 0.35 0.35 0.36 0.36 0.36 0.35 0.33 0.34 0.33 0.33 0.34 0.34 0.34 0.35 0.37 0.43 0.49 0.53 0.57 0.61 0.66 0.70 0.74 0.78 0.78 0.79 0.81 0.81 0.82 0.82 0.82 0.83 0.82 0.80
0.21 0.19 0.18 0.18 0.14 0.12 0.18 0.17 0.17 0.18 0.19 0.16 0.16 0.20 0.22 0.24 0.25 0.25 0.25 0.25 0.24 0.24 0.22 0.19 0.19 0.21 0.23 0.25 0.25 0.27 0.29 0.29 0.29 0.28 0.27 0.28 0.30 0.30 0.29 0.27 0.27 0.28 0.28 0.29 0.29 0.29 0.30 0.30 0.30 0.31 0.31 0.32 0.32 0.32 0.33 0.34 0.33 0.32 0.32 0.31 0.32 0.32 0.32 0.32 0.33 0.33 0.34 0.38 0.45 0.50 0.54 0.57 0.59 0.64 0.68 0.72 0.75 0.75 0.76 0.78 0.78 0.76 0.75 0.73 0.71 0.70
0.21 0.19 0.17 0.18 0.13 0.12 0.16 0.16 0.18 0.15 0.10 0.09 0.18 0.21 0.20 0.18 0.19 0.20 0.22 0.24 0.27 0.28 0.25 0.25 0.23 0.25 0.26 0.27 0.26 0.27 0.28 0.30 0.30 0.30 0.31 0.30 0.29 0.31 0.30 0.29 0.28 0.27 0.28 0.28 0.28 0.28 0.29 0.29 0.29 0.29 0.30 0.30 0.31 0.31 0.32 0.32 0.31 0.31 0.32 0.32 0.32 0.31 0.30 0.30 0.31 0.33 0.34 0.36 0.41 0.47 0.52 0.56 0.58 0.60 0.63 0.69 0.75 0.78 0.77 0.79 0.78 0.78 0.81 0.76 0.74 0.69
0.19 0.19 0.18 0.19 0.15 0.13 0.16 0.17 0.14 0.10 0.09 0.17 0.21 0.24 0.24 0.24 0.23 0.22 0.22 0.23 0.24 0.25 0.26 0.24 0.25 0.26 0.29 0.30 0.31 0.33 0.34 0.33 0.33 0.32 0.32 0.33 0.32 0.31 0.30 0.28 0.27 0.27 0.27 0.27 0.28 0.28 0.29 0.29 0.28 0.28 0.27 0.28 0.29 0.30 0.31 0.30 0.31 0.31 0.30 0.31 0.30 0.31 0.30 0.30 0.30 0.31 0.34 0.36 0.39 0.45 0.51 0.54 0.57 0.59 0.63 0.65 0.67 0.70 0.69 0.68 0.71 0.78 0.82 0.82 0.77 0.74
0.19 0.19 0.19 0.18 0.18 0.18 0.15 0.14 0.09 0.09 0.17 0.20 0.22 0.25 0.28 0.26 0.25 0.22 0.20 0.23 0.26 0.27 0.26 0.24 0.27 0.30 0.32 0.33 0.34 0.35 0.34 0.35 0.35 0.35 0.34 0.34 0.35 0.32 0.30 0.27 0.27 0.27 0.27 0.27 0.28 0.28 0.28 0.28 0.28 0.28 0.28 0.29 0.29 0.29 0.30 0.29 0.30 0.29 0.28 0.30 0.29 0.29 0.30 0.30 0.30 0.30 0.33 0.35 0.38 0.41 0.48 0.54 0.57 0.60 0.61 0.64 0.65 0.65 0.66 0.68 0.68 0.66 0.67 0.70 0.71 0.70
0.22 0.21 0.19 0.15 0.19 0.12 0.13 0.13 0.12 0.17 0.16 0.18 0.18 0.23 0.24 0.20 0.23 0.20 0.16 0.20 0.27 0.31 0.30 0.29 0.31 0.32 0.33 0.34 0.33 0.34 0.35 0.35 0.31 0.30 0.32 0.32 0.32 0.33 0.32 0.30 0.29 0.28 0.28 0.29 0.30 0.30 0.31 0.31 0.31 0.31 0.32 0.31 0.30 0.29 0.28 0.29 0.29 0.28 0.27 0.27 0.27 0.28 0.29 0.29 0.29 0.30 0.32 0.34 0.37 0.41 0.46 0.52 0.55 0.57 0.60 0.62 0.64 0.66 0.68 0.70 0.70 0.69 0.68 0.65 0.63 0.61
0.24 0.18 0.21 0.17 0.16 0.18 0.14 0.13 0.13 0.13 0.11 0.15 0.22 0.30 0.34 0.33 0.32 0.31 0.25 0.21 0.29 0.30 0.32 0.31 0.29 0.29 0.31 0.31 0.32 0.32 0.34 0.28 0.23 0.25 0.28 0.29 0.31 0.31 0.33 0.34 0.34 0.33 0.32 0.32 0.33 0.33 0.33 0.33 0.33 0.34 0.33 0.31 0.30 0.30 0.30 0.30 0.30 0.29 0.27 0.27 0.27 0.27 0.27 0.28 0.29 0.30 0.32 0.34 0.37 0.42 0.47 0.53 0.57 0.57 0.59 0.62 0.63 0.66 0.69 0.72 0.73 0.70 0.67 0.61 0.59 0.59
0.23 0.24 0.22 0.19 0.17 0.18 0.16 0.13 0.12 0.11 0.13 0.21 0.25 0.30 0.33 0.36 0.35 0.35 0.25 0.20 0.28 0.31 0.32 0.32 0.31 0.31 0.32 0.32 0.32 0.34 0.29 0.22 0.22 0.26 0.29 0.30 0.32 0.33 0.33 0.34 0.34 0.34 0.34 0.34 0.33 0.32 0.33 0.34 0.34 0.34 0.33 0.32 0.30 0.31 0.32 0.31 0.30 0.29 0.27 0.28 0.28 0.27 0.27 0.27 0.29 0.31 0.32 0.35 0.39 0.43 0.48 0.52 0.56 0.59 0.60 0.62 0.64 0.68 0.70 0.72 0.73 0.70 0.68 0.63 0.61 0.60
0.19 0.19 0.20 0.17 0.16 0.17 0.17 0.15 0.13 0.17 0.16 0.26 0.30 0.32 0.34 0.37 0.37 0.30 0.18 0.18 0.29 0.33 0.32 0.33 0.31 0.33 0.34 0.34 0.35 0.32 0.28 0.23 0.23 0.27 0.32 0.33 0.35 0.36 0.35 0.34 0.34 0.34 0.35 0.36 0.36 0.36 0.36 0.36 0.35 0.33 0.32 0.31 0.31 0.33 0.33 0.32 0.31 0.29 0.29 0.28 0.29 0.28 0.27 0.28 0.30 0.34 0.36 0.38 0.41 0.44 0.48 0.52 0.55 0.60 0.61 0.62 0.64 0.67 0.71 0.72 0.69 0.65 0.66 0.65 0.64 0.64
0.17 0.16 0.17 0.14 0.15 0.17 0.17 0.17 0.19 0.20 0.28 0.31 0.30 0.32 0.33 0.35 0.33 0.21 0.16 0.24 0.33 0.34 0.35 0.35 0.34 0.34 0.35 0.34 0.36 0.31 0.33 0.32 0.32 0.35 0.36 0.37 0.36 0.36 0.36 0.36 0.36 0.36 0.35 0.36 0.36 0.38 0.37 0.36 0.35 0.34 0.33 0.33 0.34 0.34 0.33 0.33 0.31 0.29 0.30 0.30 0.29 0.27 0.28 0.32 0.34 0.36 0.38 0.40 0.43 0.46 0.48 0.52 0.55 0.57 0.60 0.61 0.63 0.67 0.67 0.64 0.63 0.63 0.64 0.67 0.71 0.71
0.16 0.17 0.16 0.17 0.15 0.14 0.15 0.15 0.15 0.19 0.27 0.31 0.32 0.31 0.33 0.27 0.19 0.18 0.27 0.34 0.33 0.33 0.36 0.37 0.36 0.37 0.36 0.34 0.34 0.34 0.34 0.35 0.37 0.38 0.37 0.36 0.35 0.34 0.35 0.35 0.36 0.36 0.37 0.38 0.37 0.37 0.36 0.36 0.36 0.35 0.35 0.35 0.35 0.34 0.34 0.33 0.31 0.31 0.31 0.30 0.29 0.29 0.33 0.35 0.36 0.39 0.40 0.42 0.45 0.48 0.50 0.52 0.55 0.59 0.61 0.64 0.64 0.61 0.61 0.62 0.64 0.68 0.69 0.71 0.69 0.65
0.17 0.14 0.13 0.14 0.15 0.16 0.15 0.13 0.12 0.11 0.27 0.33 0.32 0.29 0.31 0.22 0.23 0.28 0.30 0.32 0.33 0.34 0.33 0.33 0.33 0.34 0.35 0.33 0.34 0.33 0.34 0.34 0.34 0.34 0.33 0.33 0.32 0.31 0.31 0.32 0.32 0.32 0.32 0.33 0.34 0.36 0.37 0.35 0.34 0.34 0.34 0.35 0.35 0.36 0.36 0.35 0.32 0.31 0.32 0.30 0.31 0.35 0.37 0.38 0.40 0.41 0.43 0.45 0.47 0.50 0.52 0.54 0.56 0.58 0.61 0.63 0.64 0.60 0.60 0.64 0.66 0.66 0.63 0.58 0.57 0.53
0.21 0.14 0.13 0.15 0.18 0.13 0.12 0.11 0.12 0.18 0.24 0.31 0.27 0.21 0.25 0.27 0.29 0.30 0.30 0.28 0.32 0.32 0.31 0.31 0.32 0.33 0.33 0.32 0.31 0.32 0.32 0.32 0.31 0.30 0.30 0.29 0.29 0.29 0.29 0.30 0.31 0.31 0.31 0.32 0.34 0.34 0.36 0.35 0.35 0.34 0.34 0.35 0.35 0.37 0.38 0.37 0.34 0.34 0.33 0.32 0.38 0.40 0.41 0.42 0.43 0.44 0.45 0.47 0.49 0.53 0.55 0.56 0.57 0.59 0.60 0.62 0.67 0.68 0.68 0.69 0.67 0.62 0.54 0.48 0.45 0.42
0.22 0.17 0.20 0.16 0.21 0.17 0.14 0.16 0.21 0.23 0.24 0.26 0.26 0.26 0.26 0.28 0.28 0.28 0.29 0.29 0.30 0.30 0.31 0.30 0.29 0.31 0.32 0.31 0.31 0.31 0.29 0.29 0.29 0.29 0.28 0.27 0.28 0.28 0.27 0.28 0.29 0.29 0.29 0.29 0.29 0.32 0.34 0.34 0.33 0.33 0.33 0.34 0.35 0.38 0.40 0.41 0.38 0.37 0.35 0.38 0.44 0.43 0.43 0.44 0.45 0.46 0.47 0.49 0.52 0.55 0.57 0.58 0.58 0.60 0.59 0.61 0.61 0.64 0.67 0.62 0.57 0.52 0.50 0.47 0.44 0.43
0.20 0.20 0.21 0.18 0.15 0.20 0.21 0.21 0.21 0.21 0.21 0.23 0.25 0.26 0.25 0.24 0.25 0.26 0.27 0.29 0.31 0.30 0.31 0.29 0.30 0.30 0.30 0.31 0.29 0.28 0.28 0.28 0.27 0.27 0.27 0.27 0.27 0.28 0.29 0.28 0.28 0.29 0.29 0.29 0.29 0.30 0.33 0.33 0.33 0.32 0.31 0.31 0.36 0.40 0.42 0.43 0.43 0.41 0.42 0.46 0.47 0.48 0.47 0.47 0.47 0.48 0.49 0.52 0.55 0.56 0.57 0.57 0.58 0.60 0.64 0.65 0.63 0.59 0.56 0.52 0.50 0.49 0.49 0.47 0.45 0.42
0.20 0.21 0.19 0.16 0.19 0.17 0.12 0.19 0.19 0.20 0.22 0.23 0.23 0.25 0.26 0.26 0.25 0.27 0.30 0.31 0.29 0.29 0.30 0.30 0.29 0.29 0.28 0.29 0.28 0.27 0.27 0.27 0.27 0.27 0.27 0.27 0.27 0.27 0.28 0.28 0.27 0.28 0.28 0.28 0.29 0.32 0.32 0.33 0.32 0.31 0.31 0.31 0.36 0.41 0.43 0.45 0.47 0.49 0.50 0.50 0.50 0.51 0.51 0.50 0.51 0.51 0.52 0.54 0.56 0.56 0.57 0.56 0.53 0.55 0.61 0.62 0.54 0.53 0.52 0.50 0.50 0.49 0.47 0.44 0.41 0.38
0.16 0.26 0.19 0.19 0.18 0.16 0.15 0.19 0.21 0.22 0.22 0.23 0.23 0.22 0.22 0.23 0.25 0.28 0.30 0.30 0.30 0.31 0.30 0.29 0.29 0.27 0.27 0.26 0.26 0.26 0.26 0.26 0.26 0.26 0.27 0.27 0.27 0.27 0.27 0.28 0.28 0.29 0.30 0.32 0.33 0.34 0.34 0.34 0.33 0.33 0.34 0.35 0.39 0.43 0.46 0.48 0.50 0.52 0.52 0.52 0.54 0.54 0.54 0.53 0.53 0.53 0.54 0.55 0.56 0.56 0.56 0.55 0.55 0.53 0.53 0.53 0.52 0.51 0.52 0.51 0.49 0.48 0.43 0.41 0.39 0.35
0.21 0.24 0.17 0.20 0.18 0.20 0.22 0.22 0.22 0.23 0.22 0.22 0.22 0.24 0.25 0.26 0.26 0.26 0.27 0.29 0.30 0.29 0.29 0.30 0.30 0.28 0.27 0.26 0.27 0.27 0.26 0.26 0.27 0.27 0.27 0.27 0.27 0.27 0.27 0.28 0.30 0.31 0.33 0.33 0.34 0.36 0.36 0.36 0.36 0.38 0.39 0.40 0.44 0.47 0.50 0.52 0.54 0.54 0.55 0.58 0.59 0.60 0.58 0.55 0.56 0.57 0.56 0.57 0.58 0.56 0.57 0.54 0.52 0.50 0.50 0.50 0.50 0.50 0.50 0.49 0.47 0.43 0.41 0.39 0.37 0.35
0.20 0.16 0.20 0.20 0.16 0.15 0.15 0.16 0.19 0.15 0.15 0.19 0.21 0.23 0.25 0.27 0.27 0.26 0.26 0.27 0.27 0.27 0.28 0.28 0.28 0.29 0.29 0.29 0.29 0.29 0.27 0.27 0.28 0.29 0.29 0.28 0.28 0.28 0.29 0.30 0.31 0.33 0.34 0.36 0.37 0.38 0.38 0.39 0.40 0.42 0.44 0.45 0.49 0.51 0.53 0.55 0.57 0.60 0.61 0.63 0.63 0.64 0.61 0.59 0.58 0.57 0.56 0.57 0.55 0.54 0.51 0.48 0.49 0.52 0.52 0.52 0.51 0.49 0.48 0.49 0.45 0.41 0.38 0.37 0.38 0.38
0.17 0.17 0.18 0.16 0.15 0.14 0.18 0.20 0.21 0.22 0.21 0.21 0.22 0.23 0.25 0.26 0.27 0.26 0.26 0.26 0.27 0.28 0.29 0.28 0.27 0.26 0.27 0.28 0.31 0.30 0.29 0.29 0.29 0.31 0.30 0.29 0.29 0.31 0.32 0.32 0.32 0.33 0.36 0.38 0.38 0.38 0.39 0.41 0.44 0.47 0.47 0.50 0.53 0.55 0.56 0.59 0.64 0.65 0.66 0.67 0.68 0.69 0.67 0.64 0.59 0.58 0.57 0.58 0.55 0.48 0.46 0.45 0.46 0.49 0.48 0.49 0.48 0.47 0.45 0.43 0.43 0.42 0.40 0.39 0.39 0.39
Wind_Speed
8 8 9 11 11 11 11 10 10 11 10 9 9 8 9 10 11 12 12 12 11 10 11 12 13 15 15 16 16 14 13 14 15 15 14 14 14 16 17 18 18 18 18 17 18 18 18 18 18 17 17 16 16 15 14 14 13 13 12 12 12 12 12 12 12 11 11 11 11 11 11 11 11 10 11 11 11 12 12 13 13 14 14 14 15 15
8 9 12 13 13 12 11 10 9 9 9 9 9 9 10 11 11 13 12 12 11 11 12 12 12 14 15 15 15 14 14 14 16 16 15 15 15 16 17 18 18 18 17 17 18 18 19 19 18 18 18 17 17 16 15 15 14 14 13 12 12 12 12 12 12 11 10 11 11 11 10 10 10 10 10 11 11 11 11 12 12 13 13 14 14 14
10 11 13 13 12 10 9 9 9 9 9 10 10 10 11 12 12 13 13 13 12 12 13 12 12 14 15 15 15 14 15 16 16 16 16 16 16 16 17 18 19 18 18 18 18 19 20 20 19 19 19 18 17 17 17 16 15 15 14 13 13 12 12 11 11 11 10 10 11 10 10 10 10 10 10 11 11 10 10 11 11 12 12 13 13 13
11 12 13 11 10 9 10 10 9 10 11 11 11 11 12 12 12 13 14 14 13 12 13 12 13 15 15 14 15 15 15 15 16 17 16 16 17 18 18 19 19 20 20 19 19 19 20 20 20 20 20 19 18 18 18 17 16 15 14 14 13 13 12 11 11 11 10 10 10 10 9 9 9 10 10 10 10 10 10 10 10 11 11 11 11 12
12 13 11 10 10 11 11 11 10 11 12 13 12 12 12 13 13 13 14 14 14 13 13 12 13 15 14 14 15 15 14 14 15 16 16 16 17 18 19 19 21 22 21 21 21 20 21 21 22 21 20 20 19 19 19 18 17 16 15 14 14 13 12 11 11 11 10 10 10 10 9 9 9 9 10 10 10 10 9 9 9 10 10 10 10 10
13 13 11 10 10 11 11 12 12 12 12 13 14 14 13 13 13 14 14 13 13 14 14 13 14 16 15 14 16 15 14 15 15 15 16 17 17 19 20 20 22 22 23 22 22 22 22 23 22 22 21 21 21 20 19 18 17 17 16 15 14 14 12 12 11 11 11 11 11 11 10 9 9 10 10 10 9 9 9 9 9 9 9 9 9 9
12 12 10 10 10 10 11 13 13 12 11 13 14 13 12 12 12 13 13 12 13 15 15 13 14 16 15 15 16 15 15 17 17 17 18 18 18 20 21 22 22 23 23 23 23 23 23 23 23 22 22 22 21 20 19 18 18 17 16 15 15 14 13 12 12 12 12 12 12 11 10 10 10 10 10 9 9 9 9 9 9 9 8 8 8 8
12 12 10 10 10 10 11 13 13 12 11 13 14 12 11 12 12 13 12 13 14 15 15 14 14 16 17 17 17 16 16 18 19 19 20 20 20 21 22 23 23 23 23 24 24 23 23 23 23 23 23 23 21 20 19 18 18 17 17 16 15 15 14 13 12 12 12 12 12 12 11 10 11 10 10 10 10 9 9 9 9 9 9 8 8 8
12 13 13 11 10 10 12 12 13 11 11 14 13 11 12 12 13 13 12 13 14 14 15 15 14 15 17 17 16 15 16 17 19 20 20 21 21 22 23 24 25 25 24 24 24 23 22 22 23 23 23 22 21 20 19 18 17 17 16 16 15 15 14 13 13 13 12 12 12 12 12 11 11 11 10 10 10 10 10 10 10 10 10 9 9 8
12 13 14 12 11 12 13 12 12 11 12 13 11 10 11 12 12 12 12 13 13 13 15 16 14 14 16 17 15 13 14 16 17 18 18 19 21 21 22 23 23 23 23 23 22 21 21 22 22 22 21 21 21 20 20 19 17 17 16 16 16 15 14 14 13 13 13 12 12 12 12 12 11 11 10 10 10 10 10 10 10 10 10 10 10 9
11 12 13 12 13 13 11 11 11 11 11 11 10 10 11 12 12 12 12 12 11 13 15 16 13 12 14 15 13 12 12 14 15 16 16 17 18 18 18 18 19 19 19 20 20 19 20 20 20 20 20 20 20 20 20 20 19 17 16 16 16 15 15 14 14 13 13 13 12 12 12 12 12 11 11 10 10 10 10 10 11 11 11 11 10 10
10 10 12 12 12 11 9 10 11 11 11 11 11 11 11 12 12 11 12 11 11 13 14 13 11 11 12 13 13 13 13 14 14 14 15 15 16 16 14 14 15 16 16 17 18 18 18 18 19 20 20 19 18 19 20 20 19 18 17 16 16 16 16 15 15 14 13 13 13 13 13 13 12 12 11 11 11 11 11 11 11 11 11 11 11 11
10 10 11 11 11 10 9 10 11 11 11 11 12 11 11 11 11 11 12 11 12 13 13 11 10 11 13 14 14 14 14 13 13 13 14 14 15 14 12 11 12 12 14 16 17 18 18 18 19 20 21 20 19 19 19 20 20 19 18 17 17 17 17 16 16 15 14 14 13 13 13 14 13 13 12 11 11 11 11 11 11 11 11 11 11 11
11 11 10 9 11 11 10 11 12 12 12 12 12 12 11 10 10 12 12 11 12 13 12 11 11 12 13 13 13 14 15 14 13 13 14 14 15 13 10 10 9 9 11 14 16 17 18 18 18 20 20 20 19 19 18 19 20 20 20 19 18 18 18 17 17 16 15 15 14 14 14 14 14 14 13 12 12 11 11 11 11 11 11 11 11 11
9 10 10 8 9 10 10 11 11 11 12 12 12 12 12 11 11 12 12 11 12 11 11 11 11 11 11 12 13 14 14 13 12 13 13 13 14 12 8 8 8 8 9 12 15 17 17 18 18 18 19 19 19 19 18 19 19 20 20 20 19 19 19 19 18 17 17 16 15 15 14 14 15 15 14 14 13 12 12 12 11 12 12 12 12 12
9 11 11 10 10 9 10 10 9 10 11 12 12 11 13 13 12 12 12 11 12 11 11 12 12 12 12 12 13 12 13 13 13 13 12 12 12 10 8 8 7 7 8 10 12 15 17 17 17 17 17 17 18 18 19 19 19 20 20 20 20 19 19 19 19 19 18 17 16 16 16 16 15 15 16 15 14 14 13 13 12 12 12 12 12 12
9 11 11 10 10 10 10 11 10 11 12 12 12 13 14 13 11 11 12 11 10 11 13 13 12 13 12 11 12 11 12 13 13 12 12 12 11 9 9 9 8 7 7 7 9 13 15 16 17 17 17 17 17 17 18 18 19 19 19 19 19 19 19 20 20 20 19 18 18 17 17 17 17 17 17 16 16 16 15 14 14 13 13 13 13 13
11 13 13 11 11 12 12 11 11 11 11 11 13 14 13 12 11 11 11 11 10 12 13 13 12 13 11 11 12 12 11 12 13 13 12 11 11 10 10 10 9 9 8 6 6 9 11 13 15 16 17 17 17 17 17 18 18 18 19 19 20 20 20 21 21 21 20 20 19 19 18 18 18 17 17 18 17 17 17 16 15 15 14 14 14 14
12 14 15 13 12 14 13 11 12 12 12 12 14 14 12 12 13 12 12 11 11 12 13 13 13 13 13 14 13 12 12 12 13 13 11 11 11 10 9 9 9 9 8 7 6 7 9 10 11 13 15 16 16 17 17 18 18 19 19 20 21 21 22 22 22 22 22 21 21 20 20 20 19 19 18 18 18 18 18 18 18 17 16 16 15 15
12 13 14 14 13 14 13 12 13 14 14 13 13 14 13 13 13 13 13 12 12 13 13 13 13 13 14 15 13 13 14 14 12 12 12 12 11 10 8 8 7 7 8 8 7 7 8 8 9 10 12 14 15 15 16 17 18 19 20 20 21 22 22 22 23 24 24 23 22 21 21 21 21 21 20 20 20 20 19 19 19 19 19 18 18 17
13 13 15 16 15 14 14 14 15 15 14 14 14 15 14 14 13 14 14 13 13 13 13 13 14 15 15 14 14 14 15 14 13 13 13 13 12 10 9 8 8 8 7 8 8 8 9 9 9 9 10 12 13 13 15 16 17 18 19 20 21 22 22 23 23 24 24 24 23 22 22 23 23 23 22 22 22 21 21 20 20 20 20 20 20 19
15 15 16 17 16 15 16 16 15 15 15 15 15 16 15 15 14 14 15 15 14 14 14 14 15 16 16 15 16 16 16 15 15 14 14 14 13 12 12 11 10 10 9 9 9 10 10 10 11 10 10 10 11 12 14 15 17 18 19 20 20 21 22 23 24 24 24 25 25 25 24 23 24 24 24 24 24 24 23 22 22 21 21 21 21 21
16 16 16 18 18 18 18 18 16 16 16 15 16 16 16 16 16 16 16 17 17 17 16 15 16 18 18 17 17 18 17 16 15 14 14 14 14 14 13 13 12 11 11 11 11 12 12 12 12 12 12 12 12 13 13 14 15 17 19 20 21 21 22 22 23 24 25 26 26 26 25 24 25 25 26 26 26 26 25 25 24 23 22 22 22 22
17 17 17 19 19 19 19 18 17 17 16 16 17 17 17 18 18 18 18 18 18 18 17 16 18 20 20 19 18 18 18 16 15 15 15 15 15 15 15 14 14 14 14 13 13 14 14 14 14 14 15 15 15 15 15 15 15 16 17 19 21 22 23 24 24 25 25 26 27 27 28 27 27 27 27 28 27 27 27 27 26 25 24 23 23 23
18 17 17 17 18 19 19 18 18 18 17 18 19 18 18 17 17 18 19 18 19 20 19 19 20 21 21 20 20 20 19 18 17 17 16 17 18 18 18 17 17 17 16 16 16 16 15 16 16 16 17 17 17 17 17 17 17 17 17 18 20 21 23 25 25 26 26 27 28 28 29 30 29 28 29 29 29 29 29 28 27 27 26 25 24 24
19 18 18 17 18 18 19 19 19 19 19 19 19 20 19 18 18 19 20 19 20 22 21 21 22 22 23 23 23 23 22 20 19 19 18 19 19 20 19 19 19 19 19 19 19 19 18 18 18 18 18 18 18 19 19 19 19 19 20 20 21 22 23 25 26 27 28 29 29 30 31 31 31 30 30 31 31 31 31 30 29 29 28 27 26 25
18 19 19 19 20 21 21 21 20 19 20 21 21 22 22 20 20 20 20 21 22 22 23 25 23 22 24 26 26 25 24 23 22 21 21 21 21 21 21 21 21 21 21 21 21 22 22 22 21 21 21 21 21 21 21 22 22 22 23 23 23 24 24 25 26 28 29 30 31 32 32 33 33 33 32 32 32 33 33 32 32 31 31 30 29 28
18 20 21 20 22 22 22 22 21 20 22 23 22 23 24 22 21 21 23 24 23 22 26 27 24 24 26 26 26 26 26 25 25 24 24 23 23 23 23 23 23 23 23 23 23 23 23 24 24 24 24 24 24 24 24 24 24 24 25 25 26 26 26 26 27 28 30 31 32 33 34 34 34 34 34 33 33 33 33 33 33 33 32 32 31 30
18 21 21 20 22 23 22 23 22 21 23 23 22 24 25 24 23 24 26 25 23 25 28 27 25 26 27 25 26 27 27 26 26 26 25 25 24 24 24 25 25 25 25 25 25 25 25 25 26 26 27 27 27 27 27 27 27 27 27 28 28 29 29 29 29 30 31 32 33 34 34 35 35 35 35 35 35 35 35 35 35 34 33 33 32 31
19 21 21 21 23 23 23 23 22 22 23 24 24 25 25 25 25 26 26 26 25 27 29 26 26 28 27 26 27 27 26 27 27 27 26 26 26 26 26 26 26 26 26 26 26 27 27 28 28 29 29 29 29 30 30 30 30 31 31 31 31 31 32 32 32 33 33 34 35 35 35 35 36 36 36 36 37 37 37 36 37 37 36 34 33 32
21 22 22 22 24 25 24 23 23 23 24 25 26 26 24 25 26 26 26 25 25 28 28 27 28 30 28 26 26 25 25 26 26 27 27 27 27 27 27 27 27 27 27 27 28 28 29 29 30 31 31 32 32 32 32 33 33 33 34 34 34 34 34 34 34 35 35 36 36 36 36 36 36 37 37 37 38 38 38 37 37 37 36 35 33 32
22 23 23 22 25 26 24 24 26 25 26 28 29 26 25 26 26 26 26 25 25 27 27 27 29 29 27 25 25 25 24 25 26 27 27 27 26 26 26 27 27 27 28 28 29 29 30 31 31 32 33 33 34 34 34 35 35 35 35 36 36 36 35 35 36 36 37 37 37 37 37 36 37 37 38 38 38 39 39 38 37 36 35 34 33 32
22 23 23 22 24 25 23 24 26 25 26 29 29 26 27 28 28 27 27 26 26 26 26 27 28 27 25 24 24 24 25 25 26 26 26 26 26 26 26 26 27 28 28 29 30 30 31 31 32 33 34 35 35 35 35 36 36 36 36 36 37 37 37 37 36 37 37 38 38 38 38 37 37 37 38 38 38 38 39 39 38 38 37 37 35 34
21 22 23 22 23 24 23 22 22 23 25 27 26 25 26 26 27 28 28 28 26 25 25 26 26 25 24 24 24 24 24 24 25 25 25 26 26 26 27 27 27 28 28 29 29 30 31 32 33 34 34 35 35 36 36 36 36 37 37 37 37 37 37 37 38 38 38 38 38 39 39 38 38 38 37 37 37 37 37 37 36 36 35 36 36 35
21 21 21 21 22 23 22 20 20 23 25 24 23 23 22 21 22 25 26 25 24 24 24 24 25 25 24 24 23 23 24 25 25 26 27 27 27 28 28 28 28 28 29 29 29 30 30 31 32 33 34 34 35 35 35 36 36 37 37 37 38 38 38 38 38 38 39 38 38 38 39 38 38 38 37 37 36 36 36 35 34 33 33 33 33 33
19 19 20 20 21 21 21 19 20 23 24 23 22 22 21 21 21 22 24 23 23 23 23 23 24 25 24 24 24 24 24 25 26 27 28 28 28 28 29 29 29 29 29 30 30 31 31 32 33 33 34 34 35 35 36 36 37 37 38 38 38 38 38 38 38 38 39 39 39 38 38 38 37 37 37 37 36 36 36 36 35 34 34 34 33 33
19 18 19 20 20 20 20 21 23 24 25 24 23 22 22 22 21 21 22 23 22 22 22 22 23 24 24 24 25 25 24 25 26 27 27 27 28 28 29 30 30 30 30 31 31 32 33 33 33 34 35 35 35 36 37 37 38 39 39 39 39 39 39 38 38 38 38 39 39 38 38 38 37 37 37 37 37 37 36 36 35 34 34 35 34 34
18 19 19 20 20 19 20 22 22 22 23 23 22 22 22 21 21 21 20 21 22 22 22 22 23 24 24 25 25 24 24 24 25 26 27 27 27 28 29 30 30 31 31 32 32 33 34 34 34 35 35 36 36 37 38 38 39 40 40 40 40 39 39 38 38 38 38 38 38 37 38 37 37 36 36 36 35 35 35 35 34 33 33 33 33 34
19 19 18 19 20 20 20 21 21 21 22 22 22 22 22 21 21 20 20 21 23 23 22 22 22 23 24 24 24 23 23 25 26 26 27 27 27 28 29 30 31 32 32 33 33 34 34 35 35 35 36 36 37 38 38 39 40 40 41 41 40 40 40 39 39 39 38 38 37 36 36 36 35 35 35 35 34 34 34 33 33 32 32 32 32 33
19 19 19 20 21 21 20 21 22 21 22 21 21 22 22 20 19 19 19 21 23 23 22 21 22 23 23 23 22 22 23 25 25 26 27 27 27 28 29 30 30 31 32 32 33 34 35 35 36 36 36 37 38 38 39 39 40 40 41 41 40 40 40 40 39 39 38 37 36 35 34 34 34 34 34 34 33 33 33 32 31 31 31 30 31 31
19 19 19 20 20 20 21 22 22 22 22 22 23 23 22 20 19 19 20 21 22 23 22 21 22 23 23 23 22 22 24 26 26 27 28 28 28 29 30 31 31 31 32 33 34 35 35 36 36 36 37 37 38 38 39 39 40 40 40 40 41 41 40 39 39 39 38 37 36 35 34 34 33 33 33 33 32 31 31 30 30 30 29 29 28 27
18 18 18 18 19 20 20 21 22 22 22 22 22 22 20 19 20 21 21 22 22 23 23 23 23 23 24 25 25 26 27 28 28 29 29 29 30 31 31 31 32 32 33 34 35 35 36 36 36 37 37 38 38 38 39 39 40 40 40 41 41 41 39 39 38 38 37 37 36 34 34 33 33 33 32 32 32 31 30 29 29 29 28 27 26 26
18 19 20 20 20 21 20 20 21 21 21 21 21 20 19 19 21 23 23 23 23 23 24 24 24 24 25 26 27 28 29 29 29 30 30 31 31 32 32 33 33 34 35 35 35 36 36 37 37 38 38 38 38 39 39 39 40 40 40 41 40 39 38 38 37 37 36 36 35 34 33 32 32 32 31 30 30 30 29 28 28 28 27 27 27 27
20 20 21 21 20 20 20 20 20 20 20 21 21 22 22 23 25 26 26 25 25 25 25 26 26 27 27 28 29 30 30 31 31 32 32 33 33 34 34 35 35 36 37 37 38 38 38 39 40 40 40 40 39 40 39 40 41 41 40 40 39 37 37 37 36 36 35 35 34 33 32 31 31 31 30 28 27 27 27 26 26 26 26 26 26 26
21 20 21 21 22 22 23 24 24 24 25 25 25 25 27 28 28 28 28 27 27 26 27 27 28 28 29 30 31 32 32 33 34 34 35 35 35 36 36 37 37 38 39 40 40 40 40 41 41 41 41 41 40 40 40 40 41 41 40 39 38 37 36 36 35 35 34 33 32 31 30 29 29 28 27 25 25 26 27 25 24 24 24 23 23 24
22 22 22 23 24 25 26 27 27 27 28 27 27 28 29 29 29 29 29 29 28 29 29 29 30 30 31 32 33 34 35 35 36 37 37 37 38 38 38 39 40 40 41 41 42 41 41 41 42 42 42 41 40 40 40 39 40 40 39 37 36 35 35 34 34 33 32 31 30 29 28 27 26 25 25 25 25 26 25 24 23 22 21 21 21 21
23 22 22 24 25 26 26 26 25 26 27 28 28 30 30 30 30 29 29 29 30 31 31 31 32 33 34 34 35 36 37 37 38 39 39 39 39 39 39 40 40 41 41 42 42 41 41 41 41 41 41 40 39 38 38 38 37 36 35 33 33 33 33 33 32 30 29 28 27 27 27 26 24 23 24 25 25 24 22 21 20 20 19 19 19 19
22 22 22 24 25 25 26 27 28 29 30 30 30 30 29 29 29 29 29 30 31 31 32 32 33 34 34 35 35 36 37 38 38 39 39 39 39 39 39 39 40 40 41 41 40 40 39 39 39 38 37 37 36 35 35 34 33 31 31 31 31 31 31 31 29 28 26 26 26 25 25 23 23 23 24 24 23 22 21 19 18 18 18 18 18 17
22 23 24 24 25 26 26 27 28 29 29 29 28 28 28 29 30 30 31 31 31 32 33 33 33 33 34 34 35 35 37 37 37 38 39 39 39 38 38 38 39 39 38 38 37 37 36 35 35 34 33 32 32 32 31 30 28 27 27 27 27 27 27 27 26 25 25 24 24 23 22 22 22 22 23 22 21 20 19 18 17 16 16 16 17 16
22 24 24 24 25 26 26 26 27 28 28 29 29 29 29 29 30 31 32 32 32 33 33 33 33 33 33 34 34 35 36 37 37 37 38 38 37 37 37 37 36 36 35 34 33 33 32 32 31 30 29 29 29 28 26 24 22 22 22 22 22 22 22 23 23 24 24 23 23 23 22 22 22 22 22 21 20 18 17 16 15 14 14 14 14 14
22 23 24 24 26 27 28 29 29 29 30 30 30 30 30 30 31 32 33 33 33 32 32 33 33 33 33 34 34 34 35 36 36 36 36 36 35 35 35 34 33 32 31 30 29 29 28 28 27 27 26 25 23 21 20 18 16 16 17 17 17 17 18 20 22 23 23 23 24 24 23 22 22 22 21 20 19 17 15 13 13 12 11 11 11 12
Wind_Direction
246 248 251 247 248 247 243 239 235 235 233 233 238 240 242 249 258 261 262 266 262 255 257 254 252 254 252 253 253 252 254 254 254 253 251 251 249 243 238 237 237 238 239 239 237 236 237 239 240 242 244 245 246 246 246 248 252 253 253 253 254 256 259 261 263 266 265 262 259 257 256 255 253 251 251 254 256 257 258 258 259 259 259 260 260 259
251 249 250 245 243 242 240 237 235 237 240 241 238 240 248 250 256 261 262 267 266 258 258 259 260 257 253 255 253 246 249 253 252 251 250 249 248 245 241 239 239 240 242 240 239 239 238 240 241 242 244 244 243 243 244 247 249 250 251 253 255 257 259 260 262 263 265 262 257 255 254 252 252 253 253 255 257 259 259 260 260 261 261 261 262 261
257 252 251 247 242 241 242 239 237 240 242 246 245 245 254 256 261 266 264 268 268 259 260 264 263 260 258 259 258 251 249 252 251 249 249 248 247 245 243 241 241 242 242 242 243 241 240 241 242 243 245 245 243 243 245 248 248 248 250 252 254 257 258 259 260 260 262 260 255 254 253 251 253 254 254 255 257 259 260 261 262 263 263 262 263 262
253 248 247 245 238 239 248 248 242 245 248 248 247 249 256 261 264 264 265 270 270 262 259 262 263 262 262 262 260 257 255 255 256 254 254 252 248 247 246 243 241 242 243 245 246 245 242 242 243 244 245 244 243 245 247 248 247 247 250 251 253 256 257 257 258 257 258 258 255 253 253 252 252 252 253 256 258 259 260 262 263 264 265 263 262 261
249 246 244 244 244 244 248 251 245 245 253 254 249 248 254 259 259 258 265 271 271 268 264 264 268 265 263 263 260 260 262 261 260 260 260 257 254 253 251 247 244 243 244 246 247 246 243 242 242 243 243 242 243 246 247 246 246 246 248 250 253 256 256 256 255 253 255 257 255 252 252 254 253 252 253 254 256 258 259 261 263 266 266 263 261 260
252 252 246 245 253 252 248 252 249 242 251 259 255 248 249 254 257 261 269 273 271 271 268 265 263 263 264 263 258 260 266 266 265 265 260 256 256 256 254 250 248 248 248 248 247 245 243 242 242 241 240 240 242 246 245 244 243 244 245 248 251 255 254 254 253 250 253 256 254 251 250 252 251 250 252 254 254 255 257 260 263 266 265 261 259 259
253 257 253 247 251 254 253 256 252 243 246 257 255 249 250 255 258 262 266 267 266 265 267 264 256 259 265 262 259 263 268 268 268 267 264 260 257 255 255 254 252 250 250 250 250 247 244 241 238 237 237 238 241 243 243 241 241 241 242 245 248 252 252 251 251 250 253 255 254 252 250 252 251 250 253 255 255 256 258 261 263 265 264 259 256 256
252 258 261 254 253 256 256 258 253 242 243 254 253 247 251 256 258 260 262 264 265 265 270 270 259 260 265 261 262 267 268 270 270 269 269 267 261 258 258 258 255 252 250 251 251 248 243 237 233 232 233 235 238 239 238 238 238 238 240 243 246 249 249 248 249 250 253 255 255 253 251 253 254 254 255 256 257 258 259 261 264 265 264 260 255 253
257 255 257 254 257 258 254 252 246 239 248 256 252 249 255 258 259 262 265 266 268 268 270 272 266 264 265 265 267 268 267 269 270 269 270 271 270 267 264 262 259 255 253 252 250 245 239 233 229 229 231 232 233 234 234 234 235 236 238 240 243 245 245 244 245 248 252 254 255 253 251 252 255 257 256 256 257 259 260 262 264 265 265 263 259 256
265 256 253 250 254 256 253 250 242 240 253 255 250 258 267 269 269 270 267 265 268 267 264 267 266 263 267 270 269 268 268 268 269 270 270 272 276 274 270 266 261 256 252 249 245 240 234 228 226 227 227 228 230 230 231 232 233 234 236 238 239 241 241 241 242 246 250 253 253 251 250 250 252 255 255 255 256 257 260 261 263 264 264 263 262 259
275 266 256 251 251 250 248 252 250 249 253 252 256 267 272 275 274 271 267 261 265 268 264 264 263 260 268 270 263 264 268 268 269 273 273 275 278 274 269 267 262 255 247 241 238 235 231 227 226 225 224 225 228 229 230 231 232 235 236 236 236 237 239 240 242 244 248 250 251 249 248 248 250 252 253 254 255 256 259 260 261 262 261 262 261 260
288 277 262 256 253 248 250 257 259 259 256 254 260 264 266 272 274 271 269 263 261 266 267 267 263 260 265 265 262 268 271 271 272 272 274 277 278 274 270 270 267 255 243 235 232 231 229 227 225 222 222 224 227 229 231 232 232 235 235 235 234 236 238 239 241 244 246 249 251 250 248 249 250 252 252 253 254 255 257 259 260 261 260 260 259 258
289 276 270 267 257 248 250 259 264 266 263 258 259 260 262 270 274 270 268 264 261 263 267 267 263 263 264 260 263 272 277 279 276 273 274 276 277 279 276 274 273 259 243 233 229 229 228 228 227 224 223 225 228 231 233 233 233 234 235 234 234 235 236 238 241 242 244 247 250 250 248 249 251 252 253 255 256 256 257 258 260 260 259 259 258 257
290 286 284 272 261 253 247 252 259 261 259 253 252 254 256 263 269 267 266 267 267 267 267 265 264 268 267 263 266 273 278 280 280 278 278 276 277 282 281 274 272 262 247 238 232 230 229 228 229 228 227 228 231 234 235 235 234 234 235 235 235 236 237 238 239 241 243 246 249 249 248 249 251 252 253 255 256 257 258 258 258 259 260 259 258 256
281 285 282 266 264 263 254 251 252 254 256 255 251 251 253 254 257 261 260 260 263 265 265 263 263 263 261 264 270 271 273 276 278 277 278 278 278 282 287 281 274 266 255 247 239 233 231 230 229 229 230 232 235 237 238 238 235 234 234 235 235 237 237 238 239 241 243 246 248 249 249 249 251 252 253 255 256 257 257 258 258 258 259 259 259 257
274 275 275 273 270 267 264 261 255 254 259 259 255 254 256 253 253 260 260 257 258 262 262 260 260 260 260 267 270 268 269 271 273 277 281 283 283 286 292 288 282 273 263 256 247 238 234 231 229 229 231 234 237 238 239 239 237 236 237 237 237 238 238 239 240 241 243 245 247 248 248 249 252 253 253 254 255 255 256 257 258 258 259 259 258 257
277 276 279 282 278 274 271 266 260 258 258 259 257 253 254 253 251 256 262 267 266 262 262 260 259 263 264 265 268 268 270 271 274 280 283 285 289 293 290 284 283 280 272 265 254 244 238 234 231 231 233 234 235 236 238 238 238 238 239 239 240 240 240 240 241 242 243 245 246 248 248 249 251 252 252 253 254 254 256 257 258 259 260 259 258 257
273 275 278 277 275 277 275 269 269 266 259 257 258 255 256 259 258 256 261 272 271 262 264 262 255 256 255 256 264 267 267 271 274 276 279 283 289 292 287 281 279 277 272 270 262 248 240 237 235 235 235 234 233 236 237 237 237 238 238 238 240 241 242 243 244 244 245 245 246 248 249 249 251 252 253 254 254 255 256 256 256 257 258 259 259 259
276 277 278 274 269 275 277 269 269 272 266 259 258 259 260 260 260 258 257 262 263 262 268 268 259 254 251 254 257 255 257 266 271 270 272 278 284 284 282 279 275 273 269 268 268 257 244 240 239 239 237 234 234 238 240 239 238 239 239 240 241 242 243 245 245 245 246 248 249 250 251 252 253 253 255 255 255 256 257 257 256 256 256 258 258 259
283 279 278 276 270 270 273 267 262 266 269 267 265 265 264 259 256 256 256 256 258 260 265 269 267 260 253 251 247 245 252 260 264 267 268 273 278 278 274 271 268 268 267 263 261 259 252 246 244 243 239 234 235 241 243 243 242 241 242 243 244 245 245 245 246 246 248 249 250 253 254 255 255 255 256 256 256 257 258 259 258 257 257 258 258 259
285 279 275 277 276 269 266 264 259 257 260 263 264 262 261 260 257 258 259 258 257 258 259 263 267 263 255 247 242 244 252 256 258 263 267 271 275 273 268 266 264 262 261 257 252 252 253 252 252 253 248 241 241 246 247 247 246 245 245 245 246 246 246 246 247 247 248 249 250 252 254 255 256 256 256 256 256 256 257 258 259 258 258 258 259 260
283 280 275 276 277 270 265 265 261 257 255 256 258 258 256 256 255 258 261 261 259 258 256 257 263 262 254 246 245 249 254 259 261 260 263 269 270 268 266 265 264 261 257 255 252 251 252 252 252 255 254 251 252 255 255 253 251 249 248 249 249 249 249 250 250 249 250 251 251 252 255 256 256 257 257 256 255 256 256 258 258 258 258 258 259 260
278 278 276 274 272 267 266 267 264 261 259 258 260 262 260 258 256 253 256 259 259 259 258 259 263 261 255 250 251 256 259 261 263 259 258 262 263 263 263 262 260 258 257 257 255 254 255 255 255 255 256 257 259 262 262 260 258 255 253 252 251 251 252 253 254 253 253 252 251 251 254 256 257 257 256 256 256 256 256 257 258 259 259 259 259 260
278 277 276 275 273 272 271 271 268 266 264 262 264 264 261 260 259 255 255 257 256 255 257 263 266 262 258 257 259 261 260 257 259 260 259 261 262 261 262 260 259 259 260 260 259 257 257 259 260 260 260 262 264 266 266 264 263 262 259 256 254 254 255 256 257 257 256 254 252 252 253 255 257 257 256 256 256 256 256 256 257 259 259 259 260 260
278 276 274 276 277 275 274 273 271 270 266 262 263 263 260 259 259 259 260 261 260 258 255 259 264 263 261 263 264 265 264 259 258 259 260 262 263 262 261 261 261 262 263 263 263 262 262 262 263 263 263 264 265 267 266 264 263 263 264 264 263 262 261 260 259 259 258 257 255 254 254 254 256 257 257 257 256 256 256 256 256 257 257 258 259 260
275 273 271 269 268 267 267 267 267 267 265 263 263 263 262 260 258 260 262 261 261 262 258 257 264 266 265 266 266 267 267 263 260 260 260 260 262 262 262 262 263 264 265 266 266 265 265 264 264 264 265 265 266 268 267 265 265 265 266 267 268 268 267 265 262 259 258 259 258 257 257 256 256 257 258 258 257 257 256 255 255 256 256 257 258 258
275 274 269 264 262 262 263 264 264 264 264 264 264 263 264 263 260 260 260 259 259 262 261 259 261 266 266 265 264 264 264 262 262 263 262 261 261 261 262 263 264 265 266 266 266 265 265 265 265 265 266 267 268 269 268 267 267 268 269 270 270 271 271 269 266 262 260 260 260 260 260 260 258 257 257 258 258 258 257 255 254 254 255 256 257 257
276 276 271 266 265 265 265 267 268 267 265 262 261 261 262 263 261 259 259 260 260 262 264 262 261 263 264 262 260 261 262 262 263 264 264 262 261 260 261 264 266 266 266 267 266 266 266 265 265 265 267 268 269 270 270 270 270 270 270 271 271 271 272 272 270 267 264 263 262 262 262 262 261 259 258 257 257 258 257 255 254 254 255 255 255 256
274 274 271 269 269 269 268 269 268 268 266 264 260 259 260 260 259 257 258 259 258 259 264 265 262 263 264 262 260 260 260 261 261 262 263 263 261 261 263 265 265 266 266 267 267 266 266 266 266 266 268 269 270 271 271 271 271 272 272 272 273 272 272 272 271 269 268 266 265 264 263 262 262 261 259 258 257 257 257 256 254 254 254 254 255 256
273 273 271 270 272 272 270 269 268 266 267 268 265 262 262 261 260 260 261 261 259 260 265 266 263 264 265 263 261 261 260 260 262 263 263 263 263 263 263 264 264 265 265 265 266 265 265 265 265 267 268 270 271 271 271 271 271 272 273 274 274 274 274 273 271 270 269 268 268 265 263 262 262 261 260 259 258 257 256 256 254 253 253 253 254 255
275 273 272 272 273 272 270 270 269 266 266 268 267 265 265 265 264 264 264 263 262 264 266 266 265 267 267 265 263 263 262 262 262 262 262 262 262 262 262 262 263 264 264 265 265 266 266 266 266 267 268 269 270 270 270 270 271 272 273 274 274 275 275 273 271 270 269 269 268 266 264 262 261 260 260 259 258 257 256 255 254 253 251 251 253 254
274 273 275 275 274 272 270 269 270 270 270 269 267 265 264 264 264 263 262 261 260 263 266 266 266 268 267 264 262 262 262 262 261 261 261 261 260 259 260 261 263 264 265 266 266 267 267 268 268 268 269 270 270 270 270 270 271 272 273 273 274 275 275 274 273 271 269 268 268 266 264 263 261 260 259 259 258 257 255 253 252 251 250 250 250 252
272 272 274 272 272 273 271 269 271 274 274 271 268 265 262 262 263 263 263 261 259 261 263 264 266 267 265 261 260 260 261 261 261 260 260 260 259 259 260 263 264 266 267 268 269 269 269 270 270 270 271 271 271 271 271 271 272 272 273 273 274 274 275 275 274 272 271 269 268 266 264 263 262 261 259 258 258 256 254 252 251 250 250 249 249 250
272 271 271 269 271 274 274 274 274 271 270 271 273 270 266 264 262 261 262 262 261 262 264 266 267 266 262 259 258 257 257 258 260 261 261 261 261 261 262 264 266 268 269 270 270 271 271 271 272 272 272 272 273 273 273 273 273 273 273 273 274 274 274 274 274 273 272 271 269 267 265 263 262 261 260 258 257 255 253 251 250 249 249 249 248 249
271 269 270 269 270 272 275 277 273 269 270 275 278 275 272 269 265 262 265 268 267 265 267 269 268 265 262 261 258 256 256 258 262 263 263 262 261 261 263 265 267 269 270 272 272 272 272 273 273 273 273 273 273 273 274 274 274 274 274 274 274 274 274 274 273 273 272 271 269 268 266 263 261 260 259 258 256 254 252 250 249 248 248 247 247 248
269 269 270 271 270 271 272 269 267 271 276 279 279 278 276 275 272 268 268 271 270 265 264 264 264 263 263 261 258 257 258 261 264 264 264 263 262 262 263 266 268 269 271 272 273 273 274 274 274 274 274 274 274 274 274 274 275 275 275 275 274 274 274 273 273 272 272 270 269 267 265 263 261 260 258 257 255 253 250 248 247 247 247 247 248 251
268 270 272 272 271 269 269 267 269 276 280 278 278 278 275 273 271 268 266 269 269 265 262 261 261 262 261 260 259 259 260 262 265 265 264 264 263 263 264 266 268 269 271 273 274 275 276 276 276 276 276 276 276 276 276 276 276 275 275 275 275 274 274 273 272 271 271 270 268 266 264 261 260 259 257 256 254 251 249 246 246 246 247 247 249 251
270 271 270 271 272 271 270 273 275 276 276 275 274 274 272 269 267 266 266 268 269 268 265 263 263 262 261 262 262 260 260 262 263 263 265 266 265 265 266 267 268 270 273 275 277 277 278 278 278 278 278 277 277 277 277 277 277 276 276 275 275 274 273 272 271 271 270 270 268 266 263 260 258 257 256 254 252 250 247 244 244 246 248 248 249 251
277 276 272 270 272 271 270 270 272 271 272 273 273 274 274 269 265 267 270 268 267 269 268 265 263 263 262 262 261 259 261 262 262 263 266 267 267 267 268 270 271 273 274 276 277 278 278 279 279 279 279 279 278 279 279 278 278 277 276 275 274 273 272 271 271 270 269 269 267 265 262 259 256 256 254 253 250 247 244 242 243 246 248 249 250 251
279 279 277 273 272 272 270 270 272 272 273 273 273 275 275 271 265 267 270 268 267 269 268 263 262 263 262 262 261 259 260 263 264 266 268 268 269 269 270 272 273 274 275 276 278 279 279 280 280 280 280 280 280 280 280 279 278 277 276 275 273 272 271 270 270 269 268 267 266 263 260 257 254 253 252 251 249 245 240 240 242 245 248 249 250 251
278 278 277 273 272 271 271 272 274 274 273 274 275 277 278 274 267 264 265 266 267 267 266 263 263 264 263 262 262 262 263 265 268 271 272 272 272 272 272 273 274 274 276 277 279 280 281 281 281 280 280 280 281 281 281 280 278 277 275 274 273 272 271 270 269 267 266 265 263 260 258 254 252 251 251 249 245 240 237 239 242 244 246 247 248 249
276 277 276 274 273 273 271 272 276 276 274 273 274 276 277 273 267 264 266 268 267 266 267 266 265 266 266 266 266 267 268 270 271 273 274 274 274 274 274 275 276 277 278 279 280 281 281 281 281 280 280 281 281 281 281 280 278 277 276 275 273 272 271 269 267 266 264 262 260 258 255 252 250 250 249 246 240 236 236 239 240 241 243 243 244 245
274 276 277 274 273 275 273 271 274 275 272 272 274 276 275 272 269 269 271 272 270 269 270 270 269 270 270 270 271 271 272 273 273 274 275 275 276 276 277 277 278 279 280 281 281 281 281 280 280 279 280 281 281 281 280 279 278 277 276 274 273 272 269 266 265 264 262 259 257 255 253 250 248 247 245 242 238 234 234 236 237 238 239 240 241 243
274 274 276 275 274 274 271 268 269 270 269 270 272 273 274 274 274 274 274 273 272 272 272 271 271 272 272 272 273 274 275 276 276 277 278 278 278 279 279 279 279 280 280 281 281 281 280 280 279 279 280 281 281 280 279 278 278 276 275 273 273 271 267 264 263 262 260 256 253 250 249 247 246 243 239 237 236 232 229 230 232 233 236 239 242 245
274 272 273 273 273 272 270 269 270 271 272 273 272 273 275 277 277 275 273 271 271 272 273 273 273 274 274 274 275 275 275 276 277 278 279 279 279 279 279 280 279 279 280 280 280 280 280 280 280 280 281 282 281 280 278 278 277 275 274 273 271 269 265 262 261 259 256 252 248 245 244 243 241 237 233 231 230 226 222 223 226 229 234 239 243 246
276 276 275 274 275 276 274 273 272 273 274 273 272 274 276 277 276 274 272 270 271 273 273 273 274 275 276 276 276 275 276 277 277 278 278 279 280 280 280 280 280 280 279 279 279 280 280 281 281 281 281 281 280 279 278 278 277 276 273 271 269 266 263 260 258 256 252 247 242 240 238 236 233 230 227 225 223 219 218 220 223 228 234 239 243 247
281 280 277 276 278 278 277 276 275 275 275 275 276 277 277 277 276 274 272 271 273 274 274 274 276 276 277 277 277 277 277 277 278 278 279 279 279 280 280 280 280 280 279 279 280 280 280 280 281 280 280 280 279 279 279 279 277 275 272 269 266 264 261 258 255 251 245 239 235 232 229 225 222 221 219 217 214 213 215 219 223 227 232 238 243 248
283 282 281 278 277 277 277 278 279 278 278 277 277 277 277 277 276 275 274 274 274 274 275 276 277 277 278 277 277 277 278 278 278 278 279 279 279 280 280 280 280 280 280 280 280 280 280 279 279 278 278 278 279 280 280 279 277 274 270 267 265 261 258 254 248 242 235 230 225 222 217 213 212 212 211 209 208 209 211 216 220 226 232 239 244 248
282 283 282 281 280 280 280 280 281 280 279 278 277 276 275 275 276 276 276 275 275 276 277 277 277 277 277 278 278 278 278 279 279 279 279 279 280 280 281 281 280 280 280 279 279 278 278 278 277 277 277 278 279 280 280 278 276 273 269 266 263 257 251 245 238 230 224 218 212 208 205 203 203 202 201 201 203 206 210 215 220 227 236 242 246 250
283 283 282 282 282 281 280 281 281 280 279 278 279 278 276 275 276 276 276 276 276 277 277 277 277 277 277 278 278 279 279 279 279 279 280 280 281 281 281 281 281 280 279 278 278 277 277 277 277 277 277 278 279 279 278 276 275 273 270 265 258 248 239 232 224 216 210 204 198 195 194 194 193 193 192 193 196 201 207 214 221 230 239 244 248 254
280 280 280 281 281 281 281 282 281 280 278 279 280 278 277 277 277 277 276 276 277 277 277 277 278 278 278 279 279 279 279 280 280 280 280 280 281 281 281 281 280 279 278 277 277 277 277 277 277 277 277 277 276 275 274 274 274 274 271 263 249 233 220 214 208 201 195 190 187 187 188 188 188 188 189 191 194 199 204 211 221 231 238 243 250 258